Regional Weather Roundup
Issued by NWS Boston, MA

Home | Current Version | Previous Version | Text Only | Print | Product List | Glossary On
Versions: 1 2 3 4 5 6 7 8 9 10 11 12 13 14 15 16 17 18 19 20 21 22 23 24 25 26 27
000
ASUS41 KBOX 231410
RWRBOX

REGIONAL WEATHER ROUNDUP
NATIONAL WEATHER SERVICE TAUNTON MA
1000 AM EDT WED AUG 23 2017

NOTE:  "FAIR" INDICATES FEW OR NO CLOUDS BELOW 12,000 FEET WITH NO
SIGNIFICANT WEATHER AND/OR OBSTRUCTIONS TO VISIBILITY.

MAZALL-231500-
EASTERN MASSACHUSETTS

CITY           SKY/WX    TMP DP  RH WIND       PRES   REMARKS
BOSTON         PTSUNNY   79  67  66 NW14G20   29.75R
BEVERLY        MOSUNNY   77  64  64 W13       29.74R
LAWRENCE       PTSUNNY   77  63  61 SW14G21   29.77R
BEDFORD        MOSUNNY   75  58  55 W9G21     29.75R
BLUE HILL        N/A     76  63  64 W13G28    29.77R
NORWOOD        PTSUNNY   79  68  69 W13       29.75R
MARSHFIELD     CLOUDY    79  72  78 SW8       29.75S
PLYMOUTH       CLOUDY    77  69  76 SW7       29.77R
TAUNTON        CLOUDY    77  69  76 SW7       29.76R
NEW BEDFORD    PTSUNNY   75  70  84 SW7       29.77R
$$

MAZALL-231500-
CAPE COD AND THE ISLANDS

CITY           SKY/WX    TMP DP  RH WIND       PRES   REMARKS
FALMOUTH       CLOUDY    73  72  94 SW8       29.79S
HYANNIS        CLOUDY    75  72  90 SW12      29.77R
CHATHAM        CLOUDY    76  74  93 SW10G16   29.79R
PROVINCETOWN   PTSUNNY   73  70  90 S12       29.77R
NANTUCKET      CLOUDY    73  72  96 SW12      29.80R
MARTHAS VNYRD  CLOUDY    74  70  87 SW8       29.79R
$$

MAZALL-231500-
CENTRAL AND WESTERN MASSACHUSETTS

CITY           SKY/WX    TMP DP  RH WIND       PRES   REMARKS
WORCESTER      MOSUNNY   71  55  56 W10       29.81R
FITCHBURG      MOSUNNY   76  54  46 W15G22    29.78R
ORANGE         MOSUNNY   70  55  59 NW9       29.80R
SPRINGFIELD    PTSUNNY   73  56  54 NW12      29.79S
WESTFIELD      SUNNY     74  56  53 NW7G20    29.81R
NORTH ADAMS    PTSUNNY   67  54  63 W14G21    29.83S
PITTSFIELD     MOSUNNY   65  54  67 NW14G21   29.85R
$$

RIZALL-231500-
RHODE ISLAND

CITY           SKY/WX    TMP DP  RH WIND       PRES   REMARKS
PROVIDENCE     CLOUDY    78  70  76 NW8       29.78R
NEWPORT        CLOUDY    74  72  93 CALM      29.78S
BLOCK ISLAND   CLOUDY    73  70  90 SW10      29.80S
WESTERLY       CLOUDY    78  70  76 VRB6      29.79S
$$

CTZALL-231500-
CONNECTICUT

CITY           SKY/WX    TMP DP  RH WIND       PRES   REMARKS
BRADLEY INTL   PTSUNNY   75  55  49 NW12G21   29.81R
HARTFORD       MOSUNNY   75  62  64 N9        29.80R
BRIDGEPORT     CLOUDY    77  67  71 NW10      29.80R
DANBURY        PTSUNNY   75  63  66 NW9       29.84R
GROTON         CLOUDY    78  69  73 W7        29.78S
NEW HAVEN      CLOUDY    77  67  71 NW6       29.80R
CHESTER        PTSUNNY   75  68  78 NW8G15    29.81R
MERIDEN        CLOUDY    75  58  55 NW12      29.81R
WILLIMANTIC    CLOUDY    74  64  71 N8        29.81R
OXFORD         PTSUNNY   70  57  63 N7        29.84R
$$

MEZ002-015-021-024-NHZ003-005-008-011-012-014-VTZ005-008-231500-
NORTHERN NEW ENGLAND

CITY           SKY/WX    TMP DP  RH WIND       PRES   REMARKS
PORTLAND ME    CLOUDY    78  66  66 SW13G21   29.69R
BANGOR ME      PTSUNNY   78  67  68 SW9       29.65R
CONCORD NH     MOSUNNY   75  58  55 W14G24    29.75R
MANCHESTER NH  PTSUNNY   75  53  46 W7        29.74R
NASHUA NH      MOSUNNY   75  62  64 VRB7      29.76R
PORTSMOUTH NH  PTSUNNY   77  61  58 W13       29.71R
JAFFREY NH     MOSUNNY   70  55  59 W14       29.81R
KEENE NH         N/A    N/A N/A N/A MISG        N/A
BURLINGTON VT  PTSUNNY   70  50  49 W8        29.77R
MT. WASHINGTON FOG       41  41 100 W49G58      N/A  VSB 1/16WCI  27
$$

NYZ052-076-231500-
EASTERN NEW YORK

CITY           SKY/WX    TMP DP  RH WIND       PRES   REMARKS
ALBANY         PTSUNNY   70  55  59 NW15G22   29.84R
NEW YORK CITY  PTSUNNY   76  58  53 NW14      29.82R
$$

ANZALL-231500-
MARINE OBSERVATIONS

STATION/POSITION TIME  TEMP    WIND        PRES    VSBY  WAVE
                       AIR SEA DIR/SP/G                  HT/PER
                 (UTC) (F)     (DEG/KT/KT) (MB)    (MI)  (FT/S)
BOSTON BUOY      1350   68 65  210/  6/  6 1007.2R         2/10
BUZZARDS BAY     1300   69     220/ 16/ 17 1008.5R
NANTUCKET SOUND  1250   72 72  230/ 14/ 17 1008.2          1/ 3
MASS BAY-STELLWA 1304   68 63  220/ 10/ 12 1006.2R         2/ 4
ISLE OF SHOALS   1300   73     230/ 14/ 15 1005.7R
S OF BLOCK IS    NOT AVBL
$$

......................KEY.........................
  SKY/WX - SKY CONDITION/PRESENT WEATHER
  TMP    - TEMPERATURE IN FAHRENHEIT
  DWPT   - DEWPOINT IN FAHRENHEIT
  RH     - RELATIVE HUMIDITY IN PERCENT
  WIND   - DIRECTION AND SPEED IN MPH
  PRES   - MEAN SEA LEVEL PRESSURE IN INCHES OF HG
  WCI    - WIND CHILL INDEX
  VSB    - VISIBILITY IN MILES
  HX     - HEAT INDEX
  TC     - TEMPERATURE IN CELSIUS
  VRB    - VARIABLE WIND DIRECTION
  N/A    - NOT AVAILABLE




USA.gov is the U.S. government's official web portal to all federal, state and local government web resources and services.